Regional Weather Roundup
Issued by NWS

Home | Current Version | Previous Version | Text Only | Print | Product List | Glossary On
Versions: 1 2 3 4 5 6 7 8 9 10 11 12 13 14 15 16 17 18 19 20 21 22 23 24 25 26 27 28 29 30 31 32 33 34 35 36 37 38 39 40 41 42 43 44 45 46 47 48 49 50
000
ASUS43 KBIS 012202
RWRND

NORTH DAKOTA REGIONAL WEATHER ROUNDUP
NATIONAL WEATHER SERVICE BISMARCK ND
500 PM CDT MON JUN 01 2015

NOTE: "FAIR" INDICATES FEW OR NO CLOUDS BELOW 12,000 FEET WITH NO
SIGNIFICANT WEATHER AND/OR OBSTRUCTIONS TO VISIBILITY.


NDZ001>003-009>011-017-012300-
NORTHWEST NORTH DAKOTA

CITY           SKY/WX    TMP DP  RH WIND       PRES   REMARKS
WILLISTON      PTSUNNY   88  51  28 S5        29.74S
MINOT          SUNNY     82  55  39 S16G29    29.78F
MINOT AFB      SUNNY     85  59  40 S17G24    29.76F
$$

NDZ018>021-031>035-040>046-012300-
SOUTHWEST NORTH DAKOTA

CITY           SKY/WX    TMP DP  RH WIND       PRES   REMARKS
BISMARCK       MOSUNNY   82  58  43 S13       29.84F
DICKINSON      PTSUNNY   83  58  42 S17       29.81F
GARRISON         N/A     83  55  38 S15       29.80F
HETTINGER ARPT MOSUNNY   82  61  48 SE16G22   29.84F
$$

NDZ004>008-012>016-024-026-027-054-012300-
NORTHEAST NORTH DAKOTA

CITY           SKY/WX    TMP DP  RH WIND       PRES   REMARKS
GRAND FORKS    MOSUNNY   73  47  39 S23G33    29.95F
GRND FRKS AFB  SUNNY     73  50  44 S26G32    29.94F
DEVILS LAKE    MOSUNNY   79  55  44 S22       29.86F
$$

NDZ022-023-025-028>030-036>039-047>053-012300-
SOUTHEAST NORTH DAKOTA

CITY           SKY/WX    TMP DP  RH WIND       PRES   REMARKS
FARGO          PTSUNNY   72  48  42 SE18G30   29.98F
JAMESTOWN      SUNNY     79  57  46 S18G26    29.88F
$$




USA.gov is the U.S. government's official web portal to all federal, state and local government web resources and services.